[[[{"header":{"parameterUnit":"kt","parameterCategory":2,"dx":1,"dy":1,"la1":30.253999710083008,"la2":30.299108505249023,"lo1":-89.0895004272461,"lo2":-89.04439544677734,"nx":28,"ny":28,"refTime":"2022-10-10T21:00:00:Z","depth":0,"parameterNumber":1,"parameterNumberName":"U-component_of_WINDS"},"data":[-3.1957,-3.1999,-3.2026,-3.2088,-3.2123,-3.2171,-3.2197,-3.2234,-3.2271,-3.2334,-3.2375,-3.2409,-3.246,-3.2518,-3.2567,-3.2582,-3.26,-3.2595,-3.2613,-3.261,-3.2611,-3.2613,-3.2603,-3.2598,-3.2598,-3.2613,-3.2613,-3.2613,-3.1952,-3.1987,-3.2027,-3.2085,-3.212,-3.2142,-3.2191,-3.222,-3.2263,-3.2309,-3.2351,-3.241,-3.246,-3.2514,-3.2569,-3.2592,-3.2606,-3.2605,-3.2603,-3.2611,-3.2609,-3.2598,-3.2592,-3.2592,-3.2592,-3.2592,-3.2592,-3.2592,-3.1951,-3.1975,-3.2026,-3.2071,-3.2108,-3.2147,-3.2176,-3.2216,-3.2258,-3.2315,-3.2342,-3.2392,-3.2446,-3.2527,-3.2561,-3.2603,-3.2611,-3.2618,-3.2621,-3.2622,-3.2619,-3.2594,-3.2614,-3.2614,-3.2614,-3.2614,-3.2614,0,-3.1959,-3.198,-3.2021,-3.207,-3.2104,-3.2145,-3.2188,-3.2207,-3.2264,-3.2297,-3.2346,-3.238,-3.2448,-3.25,-3.2558,-3.2593,-3.2621,-3.2628,-3.2633,-3.262,-3.2601,-3.2612,-3.2606,-3.2627,-3.2627,-3.2627,-3.2627,-3.2627,-3.196,-3.1985,-3.2052,-3.2077,-3.2107,-3.2147,-3.2177,-3.2226,-3.2256,-3.2318,-3.2338,-3.239,-3.2434,-3.2511,-3.2561,-3.2613,-3.2627,-3.2632,-3.2635,-3.2622,-3.2628,-3.2626,-3.2629,-3.263,-3.263,-3.2629,-3.2629,0,-3.1958,-3.2003,-3.2052,-3.2116,-3.2133,-3.2158,-3.2214,-3.2242,-3.2279,-3.2322,-3.2335,-3.2394,-3.2443,-3.2493,-3.256,-3.2584,-3.2629,-3.2642,-3.2611,-3.2616,-3.2625,-3.2624,-3.2646,-3.2652,-3.2658,-3.2658,-3.2658,0,-3.1977,-3.2009,-3.2074,-3.21,-3.2137,-3.2184,-3.2221,-3.2256,-3.2302,-3.2336,-3.2375,-3.2407,-3.2465,-3.2505,-3.2542,-3.2587,-3.26,-3.2622,-3.2631,-3.2618,-3.2615,-3.2636,-3.2636,-3.2651,-3.2651,-3.2651,-3.265,0,-3.1969,-3.2042,-3.2083,-3.2108,-3.218,-3.2199,-3.2231,-3.2283,-3.2312,-3.2359,-3.2379,-3.243,-3.2459,-3.2499,-3.2544,-3.2545,-3.2601,-3.2612,-3.2624,-3.2623,-3.2633,-3.2632,-3.264,-3.265,-3.265,-3.265,-3.265,0,-3.1992,-3.2035,-3.2089,-3.215,-3.2168,-3.2196,-3.2248,-3.2284,-3.2336,-3.236,-3.2397,-3.2429,-3.2472,-3.2479,-3.254,-3.2528,-3.2554,-3.2579,-3.2581,-3.2587,-3.2593,-3.2591,-3.2593,-3.2595,-3.2594,-3.2594,-3.2593,0,-3.197,-3.2037,-3.2077,-3.2128,-3.2165,-3.2205,-3.2238,-3.2282,-3.2317,-3.2355,-3.2395,-3.2438,-3.2453,-3.2474,-3.2498,-3.2541,-3.2557,-3.254,-3.2597,-3.2599,-3.2581,-3.2584,-3.2571,-3.2587,-3.2588,-3.2589,-3.2589,0,-3.196,-3.2046,-3.2052,-3.2082,-3.2147,-3.2179,-3.2216,-3.2269,-3.2292,-3.2338,-3.2371,-3.2434,-3.2448,-3.2482,-3.2513,-3.2535,-3.2547,-3.2548,-3.255,-3.2546,-3.2589,-3.2577,-3.258,-3.2564,-3.2565,-3.2565,-3.2585,0,-3.1983,-3.2022,-3.204,-3.2103,-3.2135,-3.217,-3.222,-3.2248,-3.2274,-3.2309,-3.2359,-3.241,-3.2465,-3.2481,-3.2507,-3.2541,-3.2543,-3.2558,-3.2568,-3.2569,-3.2577,-3.258,-3.2552,-3.2553,-3.2554,-3.2554,0,0,-3.1952,-3.2008,-3.2052,-3.2089,-3.2118,-3.2159,-3.2191,-3.2226,-3.2293,-3.2314,-3.232,-3.2415,-3.2455,-3.2511,-3.2516,-3.2538,-3.2549,-3.2546,-3.2568,-3.257,-3.2571,-3.2578,-3.2581,-3.2555,-3.2555,-3.2555,-3.2555,0,-3.197,-3.2008,-3.2038,-3.2075,-3.2131,-3.2167,-3.2174,-3.2237,-3.2261,-3.231,-3.2344,-3.2381,-3.2455,-3.2494,-3.2523,-3.2541,-3.2565,-3.2554,-3.2546,-3.2572,-3.2572,-3.2573,-3.258,-3.2582,-3.2557,-3.2557,-3.2557,0,-3.1968,-3.2014,-3.2034,-3.2102,-3.2139,-3.2177,-3.22,-3.2239,-3.2268,-3.2312,-3.2359,-3.2394,-3.245,-3.2496,-3.2519,-3.2525,-3.2577,-3.257,-3.2568,-3.2572,-3.2599,-3.2599,-3.26,-3.2591,-3.2591,-3.2591,0,0,-3.1978,-3.2014,-3.2078,-3.211,-3.2131,-3.2184,-3.221,-3.2238,-3.2286,-3.2305,-3.235,-3.2397,-3.2441,-3.2469,-3.2513,-3.2556,-3.2572,-3.2572,-3.257,-3.2569,-3.2571,-3.2598,-3.2599,-3.2591,-3.2591,-3.2591,0,0,-3.1983,-3.2058,-3.2075,-3.2118,-3.2162,-3.2228,-3.2246,-3.2269,-3.2313,-3.2315,-3.2367,-3.2381,-3.2425,-3.2458,-3.2447,-3.2518,-3.2527,-3.2531,-3.2494,-3.2493,-3.2492,-3.2483,-3.2478,0,0,0,0,0,-3.2027,-3.2048,-3.2063,-3.2078,-3.2165,-3.2219,-3.2231,-3.2273,-3.2278,-3.2292,-3.2333,-3.2357,-3.2463,-3.2455,-3.2469,-3.2481,-3.2586,-3.2587,-3.2588,-3.2551,-3.2549,-3.2548,0,0,0,0,0,0,-3.2033,-3.2051,-3.2063,-3.2129,-3.2149,-3.2219,-3.2237,-3.2249,-3.2278,-3.2281,-3.2348,-3.2359,-3.2397,-3.245,-3.2463,-3.2473,-3.2474,-3.2586,-3.2587,-3.2588,-3.2551,-3.2549,-3.2548,0,0,0,0,0,-3.2038,-3.2052,-3.2181,-3.2129,-3.2146,-3.2207,-3.2237,-3.2247,-3.227,-3.2334,-3.2345,-3.2299,-3.2396,-3.241,-3.2458,-3.2466,-3.2466,-3.247,-3.2587,-3.2587,-3.2588,-3.255,0,0,0,0,0,0,-3.2042,-3.2063,-3.2186,-3.2193,-3.2124,-3.2204,-3.2218,-3.2245,-3.2321,-3.2333,-3.2287,-3.2289,-3.2396,-3.2406,-3.2416,-3.2461,-3.2459,-3.2464,-3.2466,-3.2587,-3.2588,-3.2588,0,0,0,0,0,0,-3.2056,-3.2068,-3.2189,-3.218,-3.2187,-3.2201,-3.2214,-3.2261,-3.2322,-3.227,-3.2275,-3.2287,-3.2381,-3.2404,-3.2412,-3.2484,-3.2454,-3.2458,-3.2461,-3.2463,-3.2588,-3.2588,0,0,0,0,0,0,-3.2062,-3.2073,-3.2179,-3.2184,-3.2189,-3.227,-3.2244,-3.2332,-3.2312,-3.2266,-3.2312,-3.2312,-3.2378,-3.2387,-3.2409,-3.2477,-3.2482,-3.2454,-3.2457,-3.2459,-3.246,0,0,0,0,0,0,0,-3.2067,-3.1982,-3.2144,-3.2186,-3.2191,-3.2257,-3.2259,-3.2261,-3.2312,-3.2312,-3.2312,-3.2312,-3.2429,-3.2434,-3.2439,-3.2472,0,0,-3.2454,-3.2456,0,0,0,0,0,0,0,0,-3.1979,-3.1981,-3.2144,-3.2146,-3.2147,-3.2257,-3.2259,-3.226,-3.2312,-3.2312,-3.2312,-3.2312,-3.243,-3.2434,-3.2438,0,0,0,0,0,0,0,0,0,0,0,0,0,0,0,-3.2145,-3.2146,0,-3.2257,-3.2259,-3.226,-3.2312,-3.2312,-3.2312,-3.2312,-3.2431,-3.2434,-3.2438,0,0,0,0,0,0,0,0,0,0,0,0,0,0,0,0,0,0,0,0,0,0,0,0,0,0,0,0,0,0,0,0,0,0,0,0,0,0,0,0,0,0,0,0,0,0,0,0,0,0,0,0,0,0,0,0,0,0,0,0,0,0,0,0,0,0,0,0,0]}],[{"header":{"parameterUnit":"kt","parameterCategory":2,"dx":1,"dy":1,"la1":30.253999710083008,"la2":30.299108505249023,"lo1":-89.0895004272461,"lo2":-89.04439544677734,"nx":28,"ny":28,"refTime":"2022-10-10T21:00:00:Z","depth":0,"parameterNumber":2,"parameterNumberName":"V-component_of_WINDS"},"data":[2.8189,2.8135,2.8156,2.8104,2.8113,2.8081,2.8076,2.8072,2.8073,2.8038,2.8021,2.8035,2.8044,2.8029,2.8012,2.8019,2.8011,2.798,2.7993,2.8114,2.8132,2.815,2.8164,2.7977,2.7977,2.7865,2.7864,2.7863,2.8288,2.8297,2.8273,2.8265,2.8246,2.829,2.8286,2.8268,2.8237,2.8237,2.822,2.819,2.8168,2.8186,2.8169,2.8145,2.8164,2.8139,2.8141,2.8142,2.8273,2.8288,2.8125,2.8125,2.8125,2.8125,2.8125,2.8125,2.8472,2.8437,2.8443,2.8418,2.8418,2.8412,2.8382,2.8399,2.8376,2.8358,2.8384,2.8349,2.8352,2.8337,2.8336,2.8311,2.8341,2.8319,2.8314,2.8308,2.8301,2.8467,2.8308,2.8308,2.8309,2.8309,2.831,0,2.8613,2.8632,2.8609,2.8593,2.8575,2.8563,2.8555,2.8538,2.858,2.8559,2.8529,2.8515,2.8488,2.8462,2.8448,2.845,2.849,2.8495,2.8481,2.8469,2.8462,2.8468,2.8683,2.8499,2.85,2.8501,2.8502,2.8503,2.8802,2.8757,2.8769,2.8751,2.8751,2.8719,2.8704,2.8745,2.8727,2.8723,2.8689,2.8664,2.8645,2.8593,2.861,2.8588,2.8607,2.8536,2.8603,2.8596,2.8609,2.8611,2.8609,2.8521,2.8519,2.8517,2.8515,0,2.8907,2.8936,2.8872,2.8887,2.889,2.8841,2.8854,2.8819,2.8837,2.8792,2.8784,2.8811,2.878,2.8808,2.8776,2.8793,2.8717,2.8735,2.8719,2.8724,2.8665,2.8671,2.8462,2.8439,2.8631,2.8629,2.8627,0,2.9079,2.9017,2.9065,2.9025,2.896,2.9,2.8934,2.8942,2.8942,2.8907,2.8957,2.8923,2.8963,2.8933,2.8956,2.8899,2.8891,2.8901,2.8907,2.8896,2.8895,2.8886,2.8895,2.8921,2.8922,2.8923,2.8923,0,2.9241,2.9191,2.9128,2.9121,2.9127,2.9097,2.9098,2.9097,2.908,2.9063,2.9053,2.9029,2.9015,2.8997,2.9026,2.9071,2.8955,2.9023,2.8965,2.8964,2.8935,2.8937,2.8746,2.8925,2.8925,2.8925,2.8926,0,2.9383,2.9365,2.9267,2.9275,2.926,2.9216,2.9196,2.9165,2.916,2.9171,2.9157,2.9191,2.914,2.9207,2.9139,2.9191,2.9176,2.9179,2.9175,2.9171,2.9245,2.9135,2.895,2.8933,2.9171,2.9173,2.9175,0,2.9563,2.9469,2.9503,2.9407,2.9368,2.9427,2.938,2.9372,2.9383,2.9352,2.9363,2.9325,2.938,2.9372,2.9334,2.9344,2.9277,2.9354,2.931,2.9308,2.9312,2.9142,2.9108,2.8988,2.9201,2.9199,2.9197,0,2.9704,2.9711,2.969,2.9685,2.9679,2.9644,2.9589,2.956,2.9538,2.9521,2.9476,2.9421,2.9462,2.9446,2.9469,2.9429,2.9324,2.9476,2.9476,2.945,2.9215,2.9184,2.9164,2.9349,2.9346,2.9344,2.9217,0,2.9918,2.9872,2.9819,2.9798,2.9776,2.9714,2.9741,2.9714,2.9741,2.9752,2.9685,2.968,2.9647,2.9629,2.9652,2.9549,2.957,2.9612,2.9676,2.9564,2.9524,2.9507,2.9736,2.9738,2.974,2.9742,0,0,3.0083,3.0017,3.0051,2.9997,2.998,3.0039,2.9972,2.9961,2.9936,2.9924,2.9961,2.9881,2.9874,2.9789,2.9756,2.9741,2.9726,2.9761,2.9617,2.9603,2.959,2.9546,2.9528,2.9745,2.9745,2.9746,2.9746,0,3.0166,3.0159,3.0091,3.0083,3.007,3.0084,3.0068,3.0064,3.0068,2.9999,3.0047,3.0009,2.9939,2.9928,2.9913,2.9774,2.981,2.9761,2.968,2.9634,2.9617,2.9603,2.9556,2.9539,2.9751,2.975,2.975,0,3.0311,3.031,3.0278,3.0239,3.023,3.0184,3.0261,3.0208,3.0175,3.0236,3.0167,3.0167,3.0151,3.0065,3.0027,3.0059,2.9886,2.9942,2.9932,2.9928,2.9885,2.9865,2.9847,3.0078,3.0079,3.008,0,0,3.0379,3.0335,3.0342,3.0258,3.0249,3.0268,3.0244,3.0267,3.0252,3.0245,3.0244,3.0228,3.019,3.0162,3.0127,3.0028,3.0028,2.9982,2.9966,2.9954,2.9942,2.9896,2.9876,3.0084,3.0084,3.0084,0,0,3.041,3.0416,3.0444,3.035,3.0335,3.0335,3.0283,3.0317,3.0287,3.0296,3.0329,3.0326,3.0245,3.0241,3.0292,3.015,3.0214,3.0202,3.0155,3.0136,3.0121,3.0123,3.0366,0,0,0,0,0,3.0506,3.0416,3.0442,3.043,3.0376,3.0321,3.0315,3.034,3.0387,3.0346,3.0352,3.0391,3.0277,3.0323,3.031,3.0251,3.0135,3.0126,3.0117,3.0034,3.0013,2.9996,0,0,0,0,0,0,3.0502,3.0487,3.0445,3.044,3.0428,3.0325,3.041,3.0414,3.0392,3.0401,3.0389,3.039,3.041,3.0331,3.0319,3.0263,3.0371,3.0131,3.0124,3.0117,3.0027,3.001,2.9996,0,0,0,0,0,3.0498,3.0486,3.0393,3.0441,3.0431,3.0445,3.0413,3.0418,3.0401,3.0407,3.041,3.0422,3.0408,3.0399,3.0324,3.0268,3.0379,3.0375,3.0126,3.012,3.0115,3.0018,0,0,0,0,0,0,3.0496,3.049,3.0392,3.039,3.0476,3.0451,3.0448,3.042,3.0409,3.0411,3.0443,3.045,3.0405,3.0399,3.0392,3.0269,3.0387,3.0382,3.0379,3.0122,3.0117,3.0113,0,0,0,0,0,0,3.0497,3.0487,3.0391,3.0433,3.0437,3.0457,3.0454,3.0392,3.0408,3.0445,3.0451,3.0446,3.0415,3.0398,3.0393,3.0296,3.0392,3.0387,3.0384,3.0382,3.0118,3.0114,0,0,0,0,0,0,3.0493,3.0485,3.0434,3.0436,3.0439,3.0417,3.0403,3.0345,3.0446,3.0445,3.0456,3.046,3.0413,3.0408,3.0393,3.0298,3.0296,3.0392,3.0389,3.0387,3.0385,0,0,0,0,0,0,0,3.049,3.0536,3.0404,3.0439,3.0442,3.037,3.0369,3.0369,3.0447,3.0451,3.0455,3.0458,3.0418,3.0413,3.0408,3.03,0,0,3.0392,3.039,0,0,0,0,0,0,0,0,3.054,3.0537,3.0404,3.0404,3.0404,3.037,3.0369,3.0369,3.0448,3.0451,3.0454,3.0457,3.0417,3.0413,3.0409,0,0,0,0,0,0,0,0,0,0,0,0,0,0,0,3.0404,3.0404,0,3.037,3.0369,3.0369,3.0448,3.0451,3.0453,3.0456,3.0416,3.0412,3.0409,0,0,0,0,0,0,0,0,0,0,0,0,0,0,0,0,0,0,0,0,0,0,0,0,0,0,0,0,0,0,0,0,0,0,0,0,0,0,0,0,0,0,0,0,0,0,0,0,0,0,0,0,0,0,0,0,0,0,0,0,0,0,0,0,0,0,0,0,0]}]]]